COSMOS 2251 DEB, 36060

Orbit data source: Space-Track

COSMOS 2251 DEB, 36060 is space debris in LEO originally from a launch on Wed, 16 Jun 1993 UTC launched from the Plesetsk Missile And Space Complex (PKMTR). The debris from Iridium 33, an American commercial communications satellite, has been tracked extensively since its accidental collision with the defunct Russian satellite Cosmos 2251 in 2009. This event, occurring at high speed in low Earth orbit (LEO), generated thousands of pieces of space debris, significantly increasing the risk of further collisions. The Iridium 33 debris cloud has impacted space traffic management and orbital debris mitigation strategies, making it a subject of ongoing study in space situational awareness.

Loading next visibility...
Identifier
36060, 1993-036AXX
Orbit
LEO
Country
Flag of CISCIS
Related business
Manufacturer
Unknown
Mission
Spacecraft
Bus & Motor
Unknown
Mass
Unknown
Launch date (UTC)
1993-06-16 (33 years ago)
Launch vehicle
Unknown
Launch site
Plesetsk Missile And Space Complex (PKMTR)
Object type
Payload
Rocket body
Debris
Shape & HBR
Unknown shape, 0.1 m
Radar Cross Section
Medium (>0.1 m² and <1 m²)

Expand to show TLE details & history
Last TLE update: 1 day ago

TLE from 1 day ago
0 COSMOS 2251 DEB
1 36060U 93036AXX 26208.59977157  .00000869  00000-0  27021-3 0  9992
2 36060  74.0287 173.6782 0015997 223.8066 136.1823 14.42454819882809
Epoch: 2026-07-27T14:23Z
TLE epoch observation values (Epoch: 2026-07-27T14:23:40.263Z)
Latitude
0.00003°
Longitude
12.47942°
Altitude
761.256 km
Speed
7.47 km/s
True Right ascension
11h 34m 42s
True Declination
0° 00' 00"
Sunlit
Object was in daylight at epoch
Visualization orbit readout
Latitude
Unknown
Longitude
Unknown
Altitude
Unknown
Speed
Unknown
Apparent Right ascension
Unknown
Apparent Declination
Unknown
Sunlit
N/A
Visualization observer readout
Local Sidereal Time
08:45:37
Azimuth
Unknown
Elevation
Unknown
Doppler factor
Unknown
Orbital elements
Apogee altitude
759.416 km
Perigee altitude
736.617 km
Semi-major axis
7,126.154 km
Eccentricity
0.0016
Inclination
74.0287°
RAAN
173.6782°
Arg. of periapsis
223.8066°
True anomaly
136.30904°
Mean anomaly
136.1823°
Eccentric anomaly
136.24569°
Mean motion
3.60795 °/min
Orbital period
99.78 mins
BSTAR
0.00027021
Loading maneuver chart data...
Computing Atmospheric mass density...

Documentation

Showing up to 5 results
|